Chickasha, OK

10:26 PM CDT on July 24, 2017 (GMT -0500)
Chickasha Municipal

Weather History for KCHK - July, 2013

Change the Weather History Date:

Tuesday, July 30, 2013

  Actual Average Record
Temperature  
Mean Temperature 83 °F -  
Max Temperature 95 °F 95 °F 109 °F (1986)
Min Temperature 71 °F 70 °F 57 °F (1971)
Cooling Degree Days 18    
Growing Degree Days 33 (Base 50)    
Moisture  
Dew Point 72 °F    
Average Humidity 74    
Maximum Humidity 94    
Minimum Humidity 49    
Precipitation  
Precipitation 0.07 in - - ()
Sea Level Pressure  
Sea Level Pressure 30.01 in    
Wind  
Wind Speed 9 mph (East)    
Max Wind Speed 28 mph    
Max Gust Speed 34 mph    
Visibility 10 miles    
Events Rain    
Averages and records for this station are not official NWS values.
T = Trace of Precipitation, MM = Missing Value Source: NWS Daily Summary

Daily Weather History Graph

Daily Weather History Graph

Search for Another Location

Airport or City:

Trip Planner

Search our weather history database for the weather conditions in past years. The results will help you decide how hot, cold, wet, or windy it might be!

Date:

Astronomy

Jul. 30, 2013 Rise Set
Actual Time 6:39 AM CDT 8:36 PM CDT
Civil Twilight 6:11 AM CDT 9:04 PM CDT
Nautical Twilight 5:37 AM CDT 9:38 PM CDT
Astronomical Twilight 5:01 AM CDT 10:14 PM CDT
Moon 12:56 AM CDT (7/30) 2:58 PM CDT (7/30)
Length of Visible Light 14h 52m
Length of Day
13h 56m
Last Quarter, 41% of the Moon is Illuminated
Jul 30
Last Quarter
Aug 6
New
Aug 14
First Quarter
Aug 20
Full
Aug 28
Last Quarter

Hourly Weather History & Observations

Time (CDT) Temp. Heat Index Dew Point Humidity Pressure Visibility Wind Dir Wind Speed Gust Speed Precip Events Conditions
12:15 AM 80.6 °F 84.6 °F 71.6 °F 74% 29.93 in - SSE 9.2 mph 16.1 mph N/A   Clear
12:35 AM 80.6 °F 83.9 °F 69.8 °F 70% 29.95 in - South 5.8 mph - N/A   Clear
12:55 AM 78.8 °F - 69.8 °F 74% 30.00 in - North 27.6 mph 34.5 mph N/A   Mostly Cloudy
1:15 AM 77.0 °F - 68.0 °F 74% 30.04 in - North 26.5 mph 29.9 mph N/A   Overcast
1:35 AM 73.4 °F - 69.8 °F 88% 30.04 in 7.0 mi NNE 18.4 mph 29.9 mph 0.01 in Rain Heavy Rain
1:55 AM 71.6 °F - 69.8 °F 94% 30.03 in 7.0 mi NE 11.5 mph 25.3 mph 0.04 in Rain Rain
2:15 AM 73.4 °F - 69.8 °F 88% 30.02 in 10.0 mi ENE 11.5 mph - 0.03 in Rain Light Rain
2:35 AM 73.4 °F - 69.8 °F 88% 30.02 in 10.0 mi East 9.2 mph - 0.03 in   Overcast
2:55 AM 73.4 °F - 69.8 °F 88% 30.01 in 10.0 mi ESE 5.8 mph - 0.03 in   Overcast
3:15 AM 73.4 °F - 69.8 °F 88% 30.01 in 10.0 mi ESE 8.1 mph - N/A   Overcast
3:35 AM 73.4 °F - 69.8 °F 88% 30.02 in 10.0 mi WNW 9.2 mph - N/A   Overcast
3:55 AM 73.4 °F - 71.6 °F 94% 30.02 in 10.0 mi Calm Calm - N/A Rain Light Rain
4:15 AM 73.4 °F - 71.6 °F 94% 30.02 in 10.0 mi Calm Calm - N/A   Overcast
4:35 AM 73.4 °F - 71.6 °F 94% 30.01 in 10.0 mi SSE 6.9 mph - N/A   Overcast
4:55 AM 73.4 °F - 71.6 °F 94% 30.00 in 10.0 mi South 6.9 mph - N/A   Mostly Cloudy
5:15 AM 73.4 °F - 71.6 °F 94% 29.99 in 10.0 mi South 10.4 mph - N/A   Clear
5:35 AM 73.4 °F - 71.6 °F 94% 29.98 in 10.0 mi South 13.8 mph - N/A   Clear
5:55 AM 73.4 °F - 71.6 °F 94% 29.97 in 10.0 mi South 16.1 mph 20.7 mph N/A   Clear
6:15 AM 73.4 °F - 71.6 °F 94% 29.97 in 10.0 mi South 11.5 mph - N/A   Clear
6:35 AM 73.4 °F - 69.8 °F 88% 29.97 in 10.0 mi SSE 12.7 mph - N/A   Clear
6:55 AM 73.4 °F - 69.8 °F 88% 29.98 in 10.0 mi SSE 11.5 mph - N/A   Clear
7:15 AM 73.4 °F - 69.8 °F 88% 29.98 in 10.0 mi SE 9.2 mph - N/A   Clear
7:35 AM 73.4 °F - 69.8 °F 88% 29.99 in 10.0 mi SE 9.2 mph - N/A   Clear
7:55 AM 73.4 °F - 69.8 °F 88% 30.00 in 10.0 mi SE 4.6 mph - N/A   Clear
8:15 AM 73.4 °F - 69.8 °F 88% 30.00 in 10.0 mi SE 5.8 mph - N/A   Clear
8:35 AM 77.0 °F - 69.8 °F 78% 30.01 in 10.0 mi SSE 3.5 mph - N/A   Clear
8:55 AM 77.0 °F - 69.8 °F 78% 30.01 in 10.0 mi SE 5.8 mph - N/A   Scattered Clouds
9:15 AM 78.8 °F - 69.8 °F 74% 30.02 in 10.0 mi SSE 6.9 mph - N/A   Clear
9:35 AM 80.6 °F 83.9 °F 69.8 °F 70% 30.02 in 10.0 mi SSE 6.9 mph - N/A   Clear
9:55 AM 80.6 °F 83.9 °F 69.8 °F 70% 30.01 in 10.0 mi South 6.9 mph - N/A   Clear
10:15 AM 82.4 °F 87.2 °F 71.6 °F 70% 30.03 in - WSW 9.2 mph - N/A   Clear
10:35 AM 86.0 °F 93.4 °F 73.4 °F 66% 30.03 in - SW 11.5 mph - N/A   Clear
10:55 AM 87.8 °F 95.6 °F 73.4 °F 62% 30.03 in - WSW 10.4 mph - N/A   Clear
11:15 AM 89.6 °F 98.2 °F 73.4 °F 59% 30.03 in - WSW 10.4 mph - N/A   Clear
11:55 AM 89.6 °F 96.2 °F 71.6 °F 55% 30.04 in - WSW 9.2 mph - N/A   Clear
12:15 PM 89.6 °F 96.2 °F 71.6 °F 55% 30.04 in - West 10.4 mph 21.9 mph N/A   Clear
12:35 PM 89.6 °F 96.2 °F 71.6 °F 55% 30.03 in - West 5.8 mph - N/A   Clear
1:15 PM 91.4 °F 98.4 °F 71.6 °F 52% 30.02 in - West 6.9 mph - N/A   Clear
1:35 PM 91.4 °F 100.1 °F 73.4 °F 55% 30.02 in - NW 6.9 mph - N/A   Clear
1:55 PM 91.4 °F 98.4 °F 71.6 °F 52% 30.01 in - North 6.9 mph - N/A   Mostly Cloudy
2:15 PM 89.6 °F 96.2 °F 71.6 °F 55% 30.01 in - North 8.1 mph - N/A   Mostly Cloudy
2:35 PM 89.6 °F 96.2 °F 71.6 °F 55% 30.01 in - North 8.1 mph - N/A   Overcast
2:55 PM 89.6 °F 98.2 °F 73.4 °F 59% 30.01 in - NE 6.9 mph - N/A   Mostly Cloudy
3:15 PM 91.4 °F 100.1 °F 73.4 °F 55% 30.01 in - NNE 3.5 mph - N/A   Scattered Clouds
3:35 PM 91.4 °F 100.1 °F 73.4 °F 55% 30.01 in - NW 5.8 mph - N/A   Scattered Clouds
3:55 PM 89.6 °F 98.2 °F 73.4 °F 59% 30.01 in - NE 5.8 mph - N/A   Mostly Cloudy
4:15 PM 91.4 °F 98.4 °F 71.6 °F 52% 30.00 in - WNW 3.5 mph - N/A   Mostly Cloudy
4:35 PM 89.6 °F 96.2 °F 71.6 °F 55% 30.00 in - Calm Calm - N/A   Mostly Cloudy
4:55 PM 89.6 °F 96.2 °F 71.6 °F 55% 30.00 in - ENE 3.5 mph - N/A   Overcast
5:15 PM 89.6 °F 96.2 °F 71.6 °F 55% 29.99 in - NE 3.5 mph - N/A   Overcast
5:35 PM 91.4 °F 100.1 °F 73.4 °F 55% 29.99 in - Calm Calm - N/A   Scattered Clouds
5:55 PM 95.0 °F 104.5 °F 73.4 °F 49% 29.99 in - NNW 4.6 mph - N/A   Clear
6:15 PM 95.0 °F 107.4 °F 75.2 °F 53% 29.98 in - NNE 4.6 mph - N/A   Clear
6:35 PM 89.6 °F 99.8 °F 75.2 °F 62% 29.98 in - NNE 9.2 mph - N/A   Clear
6:55 PM 89.6 °F 98.2 °F 73.4 °F 59% 29.98 in - NNE 9.2 mph - N/A   Clear
7:15 PM 89.6 °F 98.2 °F 73.4 °F 59% 29.98 in - NNE 10.4 mph - N/A   Clear
7:35 PM 89.6 °F 102.2 °F 77.0 °F 66% 29.99 in - NNE 11.5 mph - N/A   Clear
7:55 PM 86.0 °F 93.4 °F 73.4 °F 66% 30.00 in - NNE 11.5 mph - N/A   Clear
8:15 PM 82.4 °F 88.2 °F 73.4 °F 74% 30.01 in - NE 9.2 mph - N/A   Clear
8:35 PM 82.4 °F 88.2 °F 73.4 °F 74% 30.02 in - NE 6.9 mph - N/A   Mostly Cloudy
8:55 PM 82.4 °F 88.2 °F 73.4 °F 74% 30.02 in - East 8.1 mph - N/A   Overcast
9:15 PM 80.6 °F 85.4 °F 73.4 °F 79% 30.03 in - East 4.6 mph - N/A   Unknown
9:35 PM 80.6 °F 85.4 °F 73.4 °F 79% 30.04 in - ESE 6.9 mph - N/A   Unknown
9:55 PM 78.8 °F - 73.4 °F 83% 30.05 in - SE 6.9 mph - N/A   Unknown
10:15 PM 78.8 °F - 73.4 °F 83% 30.05 in - SE 3.5 mph - N/A   Clear
10:35 PM 78.8 °F - 73.4 °F 83% 30.05 in - ESE 3.5 mph - N/A   Clear
10:55 PM 77.0 °F - 71.6 °F 83% 30.05 in - Calm Calm - N/A   Unknown
11:15 PM 77.0 °F - 73.4 °F 89% 30.05 in - NNE 5.8 mph - N/A   Unknown
11:35 PM 77.0 °F - 73.4 °F 89% 30.05 in - East 4.6 mph - N/A   Unknown
11:55 PM 77.0 °F - 73.4 °F 89% 30.04 in - ENE 3.5 mph - N/A   Unknown